HST

Last updated on Sun Apr 12 2026 00:02:17 GMT+0000 (Coordinated Universal Time)

1 20580U 90037B 26101.49678816 .00006116 00000+0 19678-3 0 9990 2 20580 28.4727 176.1109 0002351 124.7983 235.2834 15.30022712778346
UTC large
Height (km)
Speed (km/s)
/
Latitude / Longitude
Inclination (degrees)
Orbital Period (minutes)
Azimuth
Elevation
Range (km)
Doppler Factor

Next 0 passes for location: London (51.5072 / 0.1276)

Sorry there are no passes over London.
HST